SHT13W EGLL-EGNT

Flight info

Callsign SHT13W
Flight time 0h 47m
Altitude 26000
Route ULTIB T420 AKUPA UY250 RIMTO
Aircraft A320/M-SDE3FGHIRWY/LB1

Departure

Time 2026-04-30 14:29
Airport London Heathrow Airport (EGLL)

Arrival

Time 2026-04-30 15:17
Airport Newcastle International Airport (EGNT)
Time Latitude Longitude Altitude Speed Heading
2026-04-30 14:12 51.46924 -0.48718 88 ft 0 kts 360°
2026-04-30 14:22 51.46922 -0.48717 88 ft 3 kts
2026-04-30 14:22 51.46906 -0.48717 88 ft 3 kts
2026-04-30 14:23 51.46877 -0.48742 89 ft 2 kts 85°
2026-04-30 14:23 51.46877 -0.48792 86 ft 3 kts 90°
2026-04-30 14:24 51.46877 -0.48815 86 ft 0 kts 90°
2026-04-30 14:26 51.46877 -0.48790 86 ft 7 kts 94°
2026-04-30 14:27 51.46817 -0.48752 86 ft 14 kts 181°
2026-04-30 14:27 51.46713 -0.48748 86 ft 17 kts 180°
2026-04-30 14:27 51.46609 -0.48762 90 ft 12 kts 200°
2026-04-30 14:28 51.46586 -0.48776 88 ft 0 kts 200°
2026-04-30 14:28 51.46576 -0.48781 87 ft 7 kts 198°
2026-04-30 14:28 51.46498 -0.48758 86 ft 16 kts 142°
2026-04-30 14:28 51.46477 -0.48664 86 ft 0 kts 87°
2026-04-30 14:29 51.46481 -0.47617 86 ft 129 kts 89°
2026-04-30 14:29 51.46512 -0.43889 1174 ft 184 kts 89°
2026-04-30 14:30 51.48232 -0.37575 3332 ft 256 kts 50°
2026-04-30 14:31 51.50545 -0.33010 5911 ft 270 kts 51°
2026-04-30 14:31 51.52737 -0.27990 8416 ft 283 kts 68°
2026-04-30 14:31 51.53437 -0.25047 9610 ft 288 kts 62°
2026-04-30 14:32 51.56865 -0.21549 11222 ft 321 kts
2026-04-30 14:32 51.59112 -0.21855 12210 ft 327 kts 345°
2026-04-30 14:32 51.61212 -0.23300 13212 ft 332 kts 332°
2026-04-30 14:33 51.63245 -0.25083 14199 ft 336 kts 330°
2026-04-30 14:33 51.67319 -0.29016 16066 ft 346 kts 328°
2026-04-30 14:33 51.69357 -0.31036 16937 ft 350 kts 328°
2026-04-30 14:34 51.71450 -0.33101 17803 ft 355 kts 328°
2026-04-30 14:34 51.73575 -0.35178 18656 ft 360 kts 328°
2026-04-30 14:34 51.75734 -0.37278 19518 ft 364 kts 328°
2026-04-30 14:34 51.77921 -0.39397 20348 ft 369 kts 329°
2026-04-30 14:35 51.82386 -0.43708 21886 ft 378 kts 329°
2026-04-30 14:35 51.84658 -0.45904 22614 ft 383 kts 329°
2026-04-30 14:35 51.86962 -0.48137 23354 ft 387 kts 329°
2026-04-30 14:36 51.89283 -0.50396 24091 ft 392 kts 328°
2026-04-30 14:36 51.91631 -0.52687 24809 ft 396 kts 328°
2026-04-30 14:36 51.94000 -0.55001 25493 ft 400 kts 328°
2026-04-30 14:36 51.96403 -0.57345 25881 ft 403 kts 328°
2026-04-30 14:37 51.98807 -0.59694 25988 ft 400 kts 328°
2026-04-30 14:37 52.01118 -0.61955 26009 ft 383 kts 328°
2026-04-30 14:37 52.03366 -0.64154 26009 ft 374 kts 328°
2026-04-30 14:37 52.05582 -0.66324 26008 ft 371 kts 328°
2026-04-30 14:38 52.07789 -0.68493 26009 ft 370 kts 328°
2026-04-30 14:38 52.09994 -0.70667 26008 ft 370 kts 328°
2026-04-30 14:38 52.12194 -0.72839 26009 ft 370 kts 328°
2026-04-30 14:38 52.14395 -0.75014 26009 ft 370 kts 328°
2026-04-30 14:39 52.16600 -0.77193 26009 ft 370 kts 328°
2026-04-30 14:39 52.18805 -0.79369 26009 ft 370 kts 328°
2026-04-30 14:39 52.21008 -0.81545 26011 ft 371 kts 328°
2026-04-30 14:40 52.25424 -0.85916 26017 ft 371 kts 328°
2026-04-30 14:40 52.27632 -0.88106 26021 ft 371 kts 328°
2026-04-30 14:40 52.29843 -0.90299 26023 ft 372 kts 328°
2026-04-30 14:40 52.32053 -0.92493 26026 ft 372 kts 328°
2026-04-30 14:41 52.34239 -0.94663 26027 ft 371 kts 328°
2026-04-30 14:41 52.36447 -0.96859 26026 ft 371 kts 328°
2026-04-30 14:41 52.38653 -0.99059 26027 ft 371 kts 328°
2026-04-30 14:41 52.40854 -1.01265 26025 ft 371 kts 328°
2026-04-30 14:42 52.43058 -1.03481 26027 ft 371 kts 328°
2026-04-30 14:42 52.45261 -1.05692 26024 ft 372 kts 329°
2026-04-30 14:42 52.47581 -1.07546 26025 ft 372 kts 340°
2026-04-30 14:42 52.50086 -1.08609 26029 ft 372 kts 351°
2026-04-30 14:43 52.52667 -1.08834 26030 ft 372 kts
2026-04-30 14:43 52.55258 -1.08624 26031 ft 373 kts
2026-04-30 14:43 52.57847 -1.08421 26031 ft 373 kts
2026-04-30 14:43 52.60442 -1.08225 26030 ft 373 kts
2026-04-30 14:44 52.63035 -1.08032 26031 ft 373 kts
2026-04-30 14:44 52.65594 -1.07840 26031 ft 373 kts
2026-04-30 14:44 52.68221 -1.07642 26033 ft 373 kts
2026-04-30 14:44 52.70782 -1.07453 26034 ft 373 kts
2026-04-30 14:45 52.73379 -1.07303 26034 ft 373 kts 358°
2026-04-30 14:45 52.75958 -1.07747 26028 ft 373 kts 349°
2026-04-30 14:45 52.78510 -1.08522 26035 ft 373 kts 349°
2026-04-30 14:45 52.81062 -1.09301 26029 ft 373 kts 349°
2026-04-30 14:46 52.83619 -1.10082 26034 ft 373 kts 349°
2026-04-30 14:46 52.86170 -1.10863 26034 ft 373 kts 349°
2026-04-30 14:46 52.88723 -1.11643 26033 ft 373 kts 349°
2026-04-30 14:46 52.91279 -1.12422 26034 ft 373 kts 349°
2026-04-30 14:47 52.93829 -1.13198 26029 ft 373 kts 349°
2026-04-30 14:47 52.96381 -1.13977 26037 ft 372 kts 349°
2026-04-30 14:47 52.98935 -1.14757 26036 ft 372 kts 349°
2026-04-30 14:47 53.01481 -1.15540 26033 ft 372 kts 349°
2026-04-30 14:48 53.04028 -1.16326 26035 ft 372 kts 349°
2026-04-30 14:48 53.06574 -1.17112 26034 ft 372 kts 349°
2026-04-30 14:48 53.09121 -1.17893 26031 ft 372 kts 349°
2026-04-30 14:48 53.11671 -1.18674 26027 ft 373 kts 349°
2026-04-30 14:49 53.14220 -1.19460 26034 ft 373 kts 349°
2026-04-30 14:49 53.16773 -1.20248 26034 ft 373 kts 349°
2026-04-30 14:49 53.19327 -1.21037 26036 ft 373 kts 349°
2026-04-30 14:49 53.21850 -1.21818 26036 ft 373 kts 349°
2026-04-30 14:50 53.26958 -1.23396 26038 ft 373 kts 349°
2026-04-30 14:50 53.29513 -1.24186 26038 ft 374 kts 349°
2026-04-30 14:51 53.34628 -1.25764 26031 ft 374 kts 349°
2026-04-30 14:51 53.37185 -1.26555 26038 ft 374 kts 349°
2026-04-30 14:51 53.42300 -1.28059 26035 ft 374 kts 354°
2026-04-30 14:52 53.44897 -1.28384 26036 ft 373 kts 355°
2026-04-30 14:52 53.50079 -1.29010 26038 ft 373 kts 355°
2026-04-30 14:52 53.52670 -1.29325 26032 ft 373 kts 355°
2026-04-30 14:53 53.57820 -1.30287 26033 ft 372 kts 345°
2026-04-30 14:53 53.60252 -1.31740 26032 ft 372 kts 334°
2026-04-30 14:54 53.64709 -1.36153 26035 ft 371 kts 328°
2026-04-30 14:54 53.69139 -1.40648 26031 ft 372 kts 329°
2026-04-30 14:55 53.73574 -1.45145 26033 ft 372 kts 328°
2026-04-30 14:55 53.75790 -1.47396 26035 ft 372 kts 328°
2026-04-30 14:55 53.80196 -1.51885 26038 ft 372 kts 328°
2026-04-30 14:56 53.84632 -1.56418 26035 ft 372 kts 328°
2026-04-30 14:56 53.89075 -1.60967 26036 ft 372 kts 328°
2026-04-30 14:57 53.91286 -1.63237 26009 ft 370 kts 328°
2026-04-30 14:57 53.95653 -1.67734 24993 ft 361 kts 328°
2026-04-30 14:58 53.99897 -1.72112 23250 ft 353 kts 328°
2026-04-30 14:58 54.01986 -1.74265 22407 ft 349 kts 328°
2026-04-30 14:58 54.06080 -1.78498 20722 ft 340 kts 328°
2026-04-30 14:59 54.10067 -1.82639 19064 ft 331 kts 328°
2026-04-30 15:00 54.16467 -1.85775 16675 ft 320 kts
2026-04-30 15:00 54.20812 -1.84606 15081 ft 313 kts 10°
2026-04-30 15:01 54.25050 -1.83278 13537 ft 306 kts 10°
2026-04-30 15:01 54.26460 -1.82839 13013 ft 304 kts 10°
2026-04-30 15:01 54.31226 -1.81352 11273 ft 295 kts 10°
2026-04-30 15:02 54.33233 -1.80721 10524 ft 292 kts 10°
2026-04-30 15:02 54.35222 -1.80097 9781 ft 289 kts 10°
2026-04-30 15:03 54.41048 -1.78260 7784 ft 279 kts 10°
2026-04-30 15:03 54.44825 -1.77060 6447 ft 274 kts 10°
2026-04-30 15:04 54.47911 -1.76080 5357 ft 269 kts 10°
2026-04-30 15:04 54.53406 -1.74335 4790 ft 269 kts 10°
2026-04-30 15:05 54.58941 -1.72571 4798 ft 268 kts 10°
2026-04-30 15:06 54.62597 -1.71398 4798 ft 269 kts 10°
2026-04-30 15:06 54.66153 -1.72374 4799 ft 267 kts 322°
2026-04-30 15:07 54.68582 -1.77190 4799 ft 266 kts 307°
2026-04-30 15:07 54.70856 -1.82261 4799 ft 267 kts 307°
2026-04-30 15:08 54.73272 -1.87110 4797 ft 267 kts 324°
2026-04-30 15:08 54.78097 -1.91957 4800 ft 265 kts 330°
2026-04-30 15:09 54.81136 -1.94907 4797 ft 238 kts 330°
2026-04-30 15:09 54.84010 -1.97697 4799 ft 236 kts 330°
2026-04-30 15:10 54.86854 -2.00461 4799 ft 236 kts 330°
2026-04-30 15:11 54.92506 -2.02760 4447 ft 213 kts 34°
2026-04-30 15:11 54.94842 -1.99468 3804 ft 206 kts 40°
2026-04-30 15:12 54.97096 -1.94080 3212 ft 181 kts 65°
2026-04-30 15:13 54.98122 -1.90226 2717 ft 171 kts 65°
2026-04-30 15:14 55.00045 -1.83042 1845 ft 160 kts 65°
2026-04-30 15:14 55.01414 -1.77916 1225 ft 152 kts 65°
2026-04-30 15:16 55.03588 -1.69745 262 ft 132 kts 65°
2026-04-30 15:17 55.04147 -1.68264 248 ft 12 kts 301°
2026-04-30 15:18 55.03841 -1.69482 256 ft 26 kts 245°
2026-04-30 15:19 55.03781 -1.70325 267 ft 12 kts 274°